Location: Bessat
(45.8735°N, 1.9924°E)
Time: 21:43:43
(UTC+00:00)

Cosmos 1666 - Pass Details

Date: 11 May 2021
Orbit: 496 x 518 km, 82.5° (Epoch: 24 June)

Event Time Altitude Azimuth Distance (km) Brightness Sun altitude
Rises 20:53:28 0° 356° (N) 2,601 7.1 -14.8°
Reaches altitude 10° 20:55:40 10° 3° (N) 1,710 6.0 -15.0°
Maximum altitude 20:59:16 45° 77° (ENE) 683 3.1 -15.5°
Enters shadow 21:00:32 32° 128° (SE) 876 3.3 -15.6°
